Time,TemperatureF,DewpointF,PressureIn,WindDirection,WindDirectionDegrees,WindSpeedMPH,WindSpeedGustMPH,Humidity,HourlyPrecipIn,Conditions,Clouds,dailyrainin,SolarRadiationWatts/m^2,SoftwareType,DateUTC
2013-12-25 00:01:00,42.3,31.3,30.30,WNW,293,0.0,1.0,65,0.00,,,0.04,0.0,meteohub,2013-12-25 05:01:00,
2013-12-25 00:02:00,42.3,32.2,30.31,WNW,292,0.0,1.0,67,0.00,,,0.04,0.0,meteohub,2013-12-25 05:02:00,
2013-12-25 00:03:00,42.3,32.2,30.30,WNW,293,0.0,1.0,67,0.00,,,0.04,0.0,meteohub,2013-12-25 05:03:00,
2013-12-25 00:08:00,42.1,31.5,30.31,WNW,292,0.0,1.0,66,0.00,,,0.00,0.0,meteohub,2013-12-25 05:08:00,
2013-12-25 00:13:00,41.7,31.6,30.30,WNW,293,0.0,1.0,67,0.00,,,0.00,0.0,meteohub,2013-12-25 05:13:00,
2013-12-25 00:18:00,41.5,31.8,30.30,WNW,293,0.0,1.0,68,0.00,,,0.00,0.0,meteohub,2013-12-25 05:18:00,
2013-12-25 00:23:00,41.4,32.0,30.31,WNW,287,0.0,1.0,69,0.00,,,0.00,0.0,meteohub,2013-12-25 05:23:00,
2013-12-25 00:28:00,41.2,32.5,30.30,WNW,287,0.0,1.0,71,0.00,,,0.00,0.0,meteohub,2013-12-25 05:28:00,
2013-12-25 00:33:00,41.0,32.4,30.30,WNW,296,0.0,1.0,71,0.00,,,0.00,0.0,meteohub,2013-12-25 05:33:00,
2013-12-25 00:38:00,40.8,32.5,30.30,WNW,297,0.0,1.0,72,0.00,,,0.00,0.0,meteohub,2013-12-25 05:38:00,
2013-12-25 00:43:00,40.6,32.0,30.30,WNW,296,0.0,1.0,71,0.00,,,0.00,0.0,meteohub,2013-12-25 05:43:00,
2013-12-25 00:48:00,40.5,32.2,30.30,WNW,296,0.0,1.0,72,0.00,,,0.00,0.0,meteohub,2013-12-25 05:48:00,
2013-12-25 00:53:00,40.5,32.5,30.30,WNW,297,0.0,1.0,73,0.00,,,0.00,0.0,meteohub,2013-12-25 05:53:00,
2013-12-25 00:58:00,40.3,32.4,30.30,WNW,297,0.0,1.0,73,0.00,,,0.00,0.0,meteohub,2013-12-25 05:58:00,
2013-12-25 01:03:00,39.9,32.0,30.30,WNW,296,0.0,1.0,73,0.00,,,0.00,0.0,meteohub,2013-12-25 06:03:00,
2013-12-25 01:08:00,39.9,32.7,30.30,WNW,296,1.0,1.0,75,0.00,,,0.00,0.0,meteohub,2013-12-25 06:08:00,
2013-12-25 01:13:00,39.9,32.7,30.30,WNW,296,0.0,1.0,75,0.00,,,0.00,0.0,meteohub,2013-12-25 06:13:00,
2013-12-25 01:18:00,39.7,32.7,30.30,WNW,297,0.0,1.0,76,0.00,,,0.00,0.0,meteohub,2013-12-25 06:18:00,
2013-12-25 01:23:00,39.6,32.9,30.30,WNW,298,0.0,1.0,77,0.00,,,0.00,0.0,meteohub,2013-12-25 06:23:00,
2013-12-25 01:28:00,39.4,32.5,30.30,WNW,298,0.0,1.0,76,0.00,,,0.00,0.0,meteohub,2013-12-25 06:28:00,
2013-12-25 01:33:00,39.4,32.7,30.29,WNW,298,0.0,1.0,77,0.00,,,0.00,0.0,meteohub,2013-12-25 06:33:00,
2013-12-25 01:38:00,39.4,32.7,30.30,WNW,298,0.0,1.0,77,0.00,,,0.00,0.0,meteohub,2013-12-25 06:38:00,
2013-12-25 01:43:00,39.2,32.9,30.30,WNW,298,0.0,1.0,78,0.00,,,0.00,0.0,meteohub,2013-12-25 06:43:00,
2013-12-25 01:48:00,39.0,33.1,30.29,WNW,298,0.0,1.0,79,0.00,,,0.00,0.0,meteohub,2013-12-25 06:48:00,
2013-12-25 01:53:00,38.8,32.9,30.29,WNW,298,0.0,0.0,79,0.00,,,0.00,0.0,meteohub,2013-12-25 06:53:00,
2013-12-25 01:58:00,38.7,33.3,30.30,WNW,298,0.0,0.0,81,0.00,,,0.00,0.0,meteohub,2013-12-25 06:58:00,
2013-12-25 02:03:00,38.1,32.7,30.29,WNW,298,0.0,0.0,81,0.00,,,0.00,0.0,meteohub,2013-12-25 07:03:00,
2013-12-25 02:09:00,37.9,32.9,30.30,WNW,298,0.0,0.0,82,0.00,,,0.00,0.0,meteohub,2013-12-25 07:09:00,
2013-12-25 02:14:00,37.8,33.4,30.30,WNW,298,0.0,0.0,84,0.00,,,0.00,0.0,meteohub,2013-12-25 07:14:00,
2013-12-25 02:19:00,37.8,33.4,30.29,WNW,298,0.0,0.0,84,0.00,,,0.00,0.0,meteohub,2013-12-25 07:19:00,
2013-12-25 02:20:00,37.6,33.3,30.29,WNW,298,0.0,0.0,84,0.00,,,0.00,0.0,meteohub,2013-12-25 07:20:00,
2013-12-25 02:25:00,37.6,33.4,30.29,WNW,298,0.0,0.0,85,0.00,,,0.00,0.0,meteohub,2013-12-25 07:25:00,
2013-12-25 02:30:00,37.6,33.8,30.29,WNW,298,0.0,0.0,86,0.00,,,0.00,0.0,meteohub,2013-12-25 07:30:00,
2013-12-25 02:35:00,37.2,33.4,30.29,WNW,298,0.0,1.0,86,0.00,,,0.00,0.0,meteohub,2013-12-25 07:35:00,
2013-12-25 02:40:00,37.2,33.4,30.29,WNW,298,0.0,1.0,86,0.00,,,0.00,0.0,meteohub,2013-12-25 07:40:00,
2013-12-25 02:45:00,37.0,33.3,30.29,WNW,298,0.0,0.0,86,0.00,,,0.00,0.0,meteohub,2013-12-25 07:45:00,
2013-12-25 02:50:00,37.0,33.6,30.29,WNW,298,0.0,0.0,87,0.00,,,0.00,0.0,meteohub,2013-12-25 07:50:00,
2013-12-25 02:55:00,37.2,34.0,30.29,WNW,298,0.0,0.0,88,0.00,,,0.00,0.0,meteohub,2013-12-25 07:55:00,
2013-12-25 03:00:00,37.8,34.5,30.29,WNW,298,0.0,0.0,88,0.00,,,0.00,0.0,meteohub,2013-12-25 08:00:00,
2013-12-25 03:05:00,37.9,34.7,30.29,WNW,298,0.0,1.0,88,0.00,,,0.00,0.0,meteohub,2013-12-25 08:05:00,
2013-12-25 03:10:00,38.1,34.5,30.29,WNW,298,0.0,1.0,87,0.00,,,0.00,0.0,meteohub,2013-12-25 08:10:00,
2013-12-25 03:15:00,38.7,35.1,30.29,WNW,298,0.0,1.0,87,0.00,,,0.00,0.0,meteohub,2013-12-25 08:15:00,
2013-12-25 03:20:00,38.8,35.2,30.29,WNW,298,0.0,1.0,87,0.00,,,0.00,0.0,meteohub,2013-12-25 08:20:00,
2013-12-25 03:25:00,39.0,35.4,30.29,WNW,298,0.0,1.0,87,0.00,,,0.00,0.0,meteohub,2013-12-25 08:25:00,
2013-12-25 03:30:00,39.2,35.6,30.28,NW,309,0.0,3.0,87,0.00,,,0.00,0.0,meteohub,2013-12-25 08:30:00,
2013-12-25 03:35:00,39.4,35.8,30.29,ENE,61,0.0,3.0,87,0.00,,,0.00,0.0,meteohub,2013-12-25 08:35:00,
2013-12-25 03:40:00,39.6,36.0,30.29,ENE,61,0.0,3.0,87,0.00,,,0.00,0.0,meteohub,2013-12-25 08:40:00,
2013-12-25 03:45:00,39.6,36.0,30.28,NNW,340,0.0,2.0,87,0.00,,,0.00,0.0,meteohub,2013-12-25 08:45:00,
2013-12-25 03:50:00,39.6,36.0,30.29,NNW,334,0.0,2.0,87,0.00,,,0.00,0.0,meteohub,2013-12-25 08:50:00,
2013-12-25 03:55:00,39.6,36.0,30.29,NNW,328,0.0,2.0,87,0.00,,,0.00,0.0,meteohub,2013-12-25 08:55:00,
2013-12-25 04:00:00,39.6,36.0,30.29,NNW,328,0.0,2.0,87,0.00,,,0.00,0.0,meteohub,2013-12-25 09:00:00,
2013-12-25 04:05:00,39.6,36.0,30.29,NNW,328,0.0,2.0,87,0.00,,,0.00,0.0,meteohub,2013-12-25 09:05:00,
2013-12-25 04:10:00,39.6,36.0,30.29,NNW,327,0.0,1.0,87,0.00,,,0.00,0.0,meteohub,2013-12-25 09:10:00,
2013-12-25 04:15:00,39.6,36.3,30.29,NNW,327,0.0,1.0,88,0.00,,,0.00,0.0,meteohub,2013-12-25 09:15:00,
2013-12-25 04:20:00,39.6,36.3,30.29,NNW,327,0.0,1.0,88,0.00,,,0.00,0.0,meteohub,2013-12-25 09:20:00,
2013-12-25 04:25:00,39.6,36.3,30.29,NNW,327,0.0,1.0,88,0.00,,,0.00,0.0,meteohub,2013-12-25 09:25:00,
2013-12-25 04:30:00,39.4,36.1,30.29,NNW,327,0.0,1.0,88,0.00,,,0.00,0.0,meteohub,2013-12-25 09:30:00,
2013-12-25 04:35:00,39.4,36.5,30.29,NNW,327,0.0,1.0,89,0.00,,,0.00,0.0,meteohub,2013-12-25 09:35:00,
2013-12-25 04:40:00,39.4,36.5,30.29,NW,326,0.0,1.0,89,0.00,,,0.00,0.0,meteohub,2013-12-25 09:40:00,
2013-12-25 04:45:00,39.4,36.5,30.29,NW,326,0.0,1.0,89,0.00,,,0.00,0.0,meteohub,2013-12-25 09:45:00,
2013-12-25 04:50:00,39.2,36.3,30.29,NNW,327,0.0,1.0,89,0.00,,,0.00,0.0,meteohub,2013-12-25 09:50:00,
2013-12-25 04:55:00,39.2,36.3,30.29,NNW,327,0.0,1.0,89,0.00,,,0.00,0.0,meteohub,2013-12-25 09:55:00,
2013-12-25 05:00:00,39.2,36.5,30.29,NNW,327,0.0,1.0,90,0.00,,,0.00,0.0,meteohub,2013-12-25 10:00:00,
2013-12-25 05:05:00,39.2,36.5,30.28,NW,326,0.0,1.0,90,0.00,,,0.00,0.0,meteohub,2013-12-25 10:05:00,
2013-12-25 05:10:00,39.2,36.5,30.28,NNW,327,0.0,1.0,90,0.00,,,0.00,0.0,meteohub,2013-12-25 10:10:00,
2013-12-25 05:15:00,39.2,36.5,30.28,NNW,327,0.0,1.0,90,0.00,,,0.00,0.0,meteohub,2013-12-25 10:15:00,
2013-12-25 05:20:00,39.4,36.7,30.28,WNW,300,0.0,1.0,90,0.00,,,0.00,0.0,meteohub,2013-12-25 10:20:00,
2013-12-25 05:25:00,39.4,37.0,30.28,WNW,300,0.0,2.0,91,0.00,,,0.00,0.0,meteohub,2013-12-25 10:25:00,
2013-12-25 05:30:00,39.4,37.0,30.28,WNW,300,0.0,2.0,91,0.00,,,0.00,0.0,meteohub,2013-12-25 10:30:00,
2013-12-25 05:35:00,39.6,37.2,30.28,WNW,300,0.0,2.0,91,0.00,,,0.00,0.0,meteohub,2013-12-25 10:35:00,
2013-12-25 05:40:00,39.6,37.2,30.28,WNW,300,2.0,2.0,91,0.00,,,0.00,0.0,meteohub,2013-12-25 10:40:00,
2013-12-25 05:45:00,39.6,37.2,30.28,West,274,0.0,2.0,91,0.00,,,0.00,0.0,meteohub,2013-12-25 10:45:00,
2013-12-25 05:50:00,39.7,37.4,30.29,West,277,0.0,3.0,91,0.00,,,0.00,0.0,meteohub,2013-12-25 10:50:00,
2013-12-25 05:55:00,39.7,37.4,30.29,NNW,336,0.0,3.0,91,0.00,,,0.00,0.0,meteohub,2013-12-25 10:55:00,
2013-12-25 06:00:00,39.9,37.6,30.29,NNW,327,0.0,2.0,91,0.00,,,0.00,0.0,meteohub,2013-12-25 11:00:00,
2013-12-25 06:05:00,40.3,37.9,30.29,NW,306,0.0,3.0,91,0.00,,,0.00,0.0,meteohub,2013-12-25 11:05:00,
2013-12-25 06:10:00,40.5,38.1,30.29,NNE,30,0.0,3.0,91,0.00,,,0.00,0.0,meteohub,2013-12-25 11:10:00,
2013-12-25 06:15:00,40.8,38.5,30.29,ENE,63,5.0,5.0,91,0.00,,,0.00,0.0,meteohub,2013-12-25 11:15:00,
2013-12-25 06:20:00,41.2,38.8,30.29,NE,37,0.0,5.0,91,0.00,,,0.00,0.0,meteohub,2013-12-25 11:20:00,
2013-12-25 06:25:00,41.2,38.8,30.30,NNE,26,0.0,5.0,91,0.00,,,0.00,0.0,meteohub,2013-12-25 11:25:00,
2013-12-25 06:30:00,41.4,39.0,30.30,WNW,300,0.0,5.0,91,0.00,,,0.00,0.0,meteohub,2013-12-25 11:30:00,
2013-12-25 06:35:00,41.5,39.2,30.30,NNE,28,2.0,5.0,91,0.00,,,0.00,0.0,meteohub,2013-12-25 11:35:00,
2013-12-25 06:40:00,41.5,38.8,30.30,North,350,1.0,5.0,90,0.00,,,0.00,0.0,meteohub,2013-12-25 11:40:00,
2013-12-25 06:45:00,41.7,39.0,30.30,NNE,32,1.0,8.0,90,0.00,,,0.00,0.0,meteohub,2013-12-25 11:45:00,
2013-12-25 06:50:00,41.5,38.8,30.30,NNE,28,0.0,8.0,90,0.00,,,0.00,0.0,meteohub,2013-12-25 11:50:00,
2013-12-25 06:55:00,41.5,38.8,30.30,NNW,330,1.0,8.0,90,0.00,,,0.00,0.0,meteohub,2013-12-25 11:55:00,
2013-12-25 07:00:00,41.7,39.0,30.30,NE,44,0.0,7.0,90,0.00,,,0.00,0.0,meteohub,2013-12-25 12:00:00,
2013-12-25 07:05:00,41.5,38.8,30.31,NE,46,0.0,5.0,90,0.00,,,0.00,0.0,meteohub,2013-12-25 12:05:00,
2013-12-25 07:10:00,41.5,38.8,30.30,NE,42,1.0,5.0,90,0.00,,,0.00,0.0,meteohub,2013-12-25 12:10:00,
2013-12-25 07:15:00,41.5,38.8,30.31,NE,40,6.0,6.0,90,0.00,,,0.00,0.0,meteohub,2013-12-25 12:15:00,
2013-12-25 07:20:00,41.4,38.7,30.31,NNE,22,0.0,8.0,90,0.00,,,0.00,0.0,meteohub,2013-12-25 12:20:00,
2013-12-25 07:25:00,41.4,38.3,30.32,NNE,33,0.0,8.0,89,0.00,,,0.00,5.0,meteohub,2013-12-25 12:25:00,
2013-12-25 07:30:00,41.2,38.1,30.32,NE,36,1.0,8.0,89,0.00,,,0.00,9.0,meteohub,2013-12-25 12:30:00,
2013-12-25 07:36:00,41.2,38.1,30.32,NE,37,8.0,8.0,89,0.00,,,0.00,14.0,meteohub,2013-12-25 12:36:00,
2013-12-25 07:41:00,41.2,38.1,30.32,North,0,0.0,13.0,89,0.00,,,0.00,18.0,meteohub,2013-12-25 12:41:00,
2013-12-25 07:46:00,41.2,37.9,30.32,NE,54,2.0,13.0,88,0.00,,,0.00,19.0,meteohub,2013-12-25 12:46:00,
2013-12-25 07:51:00,41.2,37.9,30.33,North,9,1.0,13.0,88,0.00,,,0.00,28.0,meteohub,2013-12-25 12:51:00,
2013-12-25 07:56:00,41.2,37.9,30.33,NE,34,1.0,8.0,88,0.00,,,0.00,25.0,meteohub,2013-12-25 12:56:00,
2013-12-25 08:01:00,41.2,37.6,30.33,NNE,18,1.0,10.0,87,0.00,,,0.00,32.0,meteohub,2013-12-25 13:01:00,
2013-12-25 08:06:00,41.2,37.4,30.33,NNE,15,0.0,10.0,86,0.00,,,0.00,46.0,meteohub,2013-12-25 13:06:00,
2013-12-25 08:11:00,41.2,37.4,30.33,NW,304,3.0,13.0,86,0.00,,,0.00,49.0,meteohub,2013-12-25 13:11:00,
2013-12-25 08:16:00,41.2,37.4,30.33,ENE,60,7.0,13.0,86,0.00,,,0.00,54.0,meteohub,2013-12-25 13:16:00,
2013-12-25 08:21:00,41.2,37.0,30.33,NE,44,4.0,13.0,85,0.00,,,0.00,67.0,meteohub,2013-12-25 13:21:00,
2013-12-25 08:26:00,41.2,37.0,30.34,NE,40,3.0,10.0,85,0.00,,,0.00,74.0,meteohub,2013-12-25 13:26:00,
2013-12-25 08:31:00,41.0,36.9,30.34,NNE,24,3.0,10.0,85,0.00,,,0.00,76.0,meteohub,2013-12-25 13:31:00,
2013-12-25 08:36:00,41.0,36.9,30.34,North,9,3.0,11.0,85,0.00,,,0.00,90.0,meteohub,2013-12-25 13:36:00,
2013-12-25 08:41:00,41.2,37.0,30.34,NW,315,0.0,13.0,85,0.00,,,0.00,144.0,meteohub,2013-12-25 13:41:00,
2013-12-25 08:46:00,41.4,37.2,30.34,NE,47,8.0,13.0,85,0.00,,,0.00,121.0,meteohub,2013-12-25 13:46:00,
2013-12-25 08:51:00,41.4,37.2,30.35,North,9,10.0,13.0,85,0.00,,,0.00,128.0,meteohub,2013-12-25 13:51:00,
2013-12-25 08:56:00,41.5,37.0,30.35,NE,54,4.0,13.0,84,0.00,,,0.00,169.0,meteohub,2013-12-25 13:56:00,
2013-12-25 09:01:00,41.7,37.2,30.35,NE,56,4.0,13.0,84,0.00,,,0.00,141.0,meteohub,2013-12-25 14:01:00,
2013-12-25 09:06:00,42.1,37.6,30.35,NNE,30,9.0,13.0,84,0.00,,,0.00,151.0,meteohub,2013-12-25 14:06:00,
2013-12-25 09:11:00,42.3,37.8,30.35,NE,55,3.0,14.0,84,0.00,,,0.00,109.0,meteohub,2013-12-25 14:11:00,
2013-12-25 09:16:00,42.4,37.9,30.35,North,9,2.0,14.0,84,0.00,,,0.00,209.0,meteohub,2013-12-25 14:16:00,
2013-12-25 09:21:00,42.6,37.8,30.36,East,92,0.0,14.0,83,0.00,,,0.00,172.0,meteohub,2013-12-25 14:21:00,
2013-12-25 09:26:00,43.0,38.1,30.36,NE,40,10.0,11.0,83,0.00,,,0.00,188.0,meteohub,2013-12-25 14:26:00,
2013-12-25 09:31:00,43.2,38.3,30.36,NE,51,9.0,11.0,83,0.00,,,0.00,255.0,meteohub,2013-12-25 14:31:00,
2013-12-25 09:36:00,43.3,38.5,30.36,NE,41,5.0,18.0,83,0.00,,,0.00,236.0,meteohub,2013-12-25 14:36:00,
2013-12-25 09:41:00,43.5,38.7,30.36,North,355,2.0,18.0,83,0.00,,,0.00,299.0,meteohub,2013-12-25 14:41:00,
2013-12-25 09:46:00,44.0,39.0,30.34,NNW,345,4.0,-999.0,83,-99.99,,,0.00,193,weatherlink.com 1.10,2013-12-25 14:46:00,
2013-12-25 09:51:00,44.1,39.2,30.36,NNE,33,1.0,17.0,83,0.00,,,0.00,179.0,meteohub,2013-12-25 14:51:00,
2013-12-25 09:56:00,44.2,39.0,30.36,NE,40,4.0,17.0,82,0.00,,,0.00,221.0,meteohub,2013-12-25 14:56:00,
2013-12-25 10:01:00,44.4,39.6,30.36,NE,44,5.0,17.0,83,0.00,,,0.00,248.0,meteohub,2013-12-25 15:01:00,
2013-12-25 10:06:00,45.0,40.1,30.36,NNE,22,7.0,14.0,83,0.00,,,0.00,260.0,meteohub,2013-12-25 15:06:00,
2013-12-25 10:11:00,45.1,39.9,30.36,NE,37,13.0,14.0,82,0.00,,,0.00,322.0,meteohub,2013-12-25 15:11:00,
2013-12-25 10:16:00,45.1,39.9,30.36,NE,49,18.0,18.0,82,0.00,,,0.00,221.0,meteohub,2013-12-25 15:16:00,
2013-12-25 10:21:00,45.1,39.9,30.36,ENE,57,16.0,19.0,82,0.00,,,0.00,232.0,meteohub,2013-12-25 15:21:00,
2013-12-25 10:25:00,45.3,40.1,30.36,North,349,4.0,19.0,82,0.00,,,0.00,185.0,meteohub,2013-12-25 15:25:00,
2013-12-25 10:30:00,45.7,40.5,30.36,WNW,288,1.0,19.0,82,0.00,,,0.00,250.0,meteohub,2013-12-25 15:30:00,
2013-12-25 10:35:00,45.7,40.5,30.36,NE,45,7.0,19.0,82,0.00,,,0.00,234.0,meteohub,2013-12-25 15:35:00,
2013-12-25 10:40:00,45.7,40.5,30.36,NNE,18,7.0,19.0,82,0.00,,,0.00,230.0,meteohub,2013-12-25 15:40:00,
2013-12-25 10:45:00,45.9,40.6,30.36,NE,37,11.0,19.0,82,0.00,,,0.00,243.0,meteohub,2013-12-25 15:45:00,
2013-12-25 10:50:00,45.9,40.6,30.36,ENE,69,8.0,19.0,82,0.00,,,0.00,267.0,meteohub,2013-12-25 15:50:00,
2013-12-25 10:56:00,45.9,40.6,30.36,NNE,32,1.0,19.0,82,0.00,,,0.00,290.0,meteohub,2013-12-25 15:56:00,
2013-12-25 11:01:00,46.0,40.8,30.36,NE,53,7.0,16.0,82,0.00,,,0.00,243.0,meteohub,2013-12-25 16:01:00,
2013-12-25 11:06:00,46.2,40.6,30.36,ENE,59,7.0,16.0,81,0.00,,,0.00,299.0,meteohub,2013-12-25 16:06:00,
2013-12-25 11:11:00,46.6,41.4,30.36,NE,40,9.0,15.0,82,0.00,,,0.00,287.0,meteohub,2013-12-25 16:11:00,
2013-12-25 11:16:00,46.8,41.2,30.36,ENE,57,5.0,16.0,81,0.00,,,0.00,339.0,meteohub,2013-12-25 16:16:00,
2013-12-25 11:20:00,46.9,41.2,30.36,NE,51,12.0,16.0,80,0.00,,,0.00,315.0,meteohub,2013-12-25 16:20:00,
2013-12-25 11:25:00,46.9,41.2,30.35,NE,39,6.0,17.0,80,0.00,,,0.00,359.0,meteohub,2013-12-25 16:25:00,
2013-12-25 11:31:00,47.1,41.4,30.35,NE,44,2.0,17.0,80,0.00,,,0.00,334.0,meteohub,2013-12-25 16:31:00,
2013-12-25 11:36:00,47.5,41.5,30.35,NE,38,5.0,14.0,80,0.00,,,0.00,380.0,meteohub,2013-12-25 16:36:00,
2013-12-25 11:41:00,47.7,41.7,30.35,North,5,3.0,14.0,80,0.00,,,0.00,427.0,meteohub,2013-12-25 16:41:00,
2013-12-25 11:46:00,47.8,41.9,30.35,NE,45,13.0,17.0,80,0.00,,,0.00,387.0,meteohub,2013-12-25 16:46:00,
2013-12-25 11:51:00,48.0,42.1,30.35,NE,40,5.0,18.0,80,0.00,,,0.00,313.0,meteohub,2013-12-25 16:51:00,
2013-12-25 11:56:00,48.6,42.6,30.35,NE,52,11.0,18.0,80,0.00,,,0.00,290.0,meteohub,2013-12-25 16:56:00,
2013-12-25 12:01:00,48.6,42.3,30.35,NE,46,9.0,18.0,79,0.00,,,0.00,322.0,meteohub,2013-12-25 17:01:00,
2013-12-25 12:06:00,48.6,42.3,30.34,NE,44,8.0,16.0,79,0.00,,,0.00,376.0,meteohub,2013-12-25 17:06:00,
2013-12-25 12:11:00,48.7,42.4,30.34,NNE,22,5.0,16.0,79,0.00,,,0.00,388.0,meteohub,2013-12-25 17:11:00,
2013-12-25 12:16:00,48.7,42.4,30.34,NNW,341,6.0,14.0,79,0.00,,,0.00,348.0,meteohub,2013-12-25 17:16:00,
2013-12-25 12:21:00,49.1,43.2,30.33,North,0,3.0,15.0,80,0.00,,,0.00,325.0,meteohub,2013-12-25 17:21:00,
2013-12-25 12:26:00,49.3,43.0,30.33,NW,323,2.0,15.0,79,0.00,,,0.00,355.0,meteohub,2013-12-25 17:26:00,
2013-12-25 12:31:00,49.0,43.0,30.30,ENE,63,8.0,-999.0,79,-99.99,,,0.00,348,weatherlink.com 1.10,2013-12-25 17:31:00,
2013-12-25 12:36:00,48.9,43.0,30.32,NNW,348,5.0,18.0,80,0.00,,,0.00,301.0,meteohub,2013-12-25 17:36:00,
2013-12-25 12:41:00,48.9,42.6,30.32,East,82,9.0,18.0,79,0.00,,,0.00,255.0,meteohub,2013-12-25 17:41:00,
2013-12-25 12:46:00,48.9,43.0,30.30,ENE,64,11.0,-999.0,80,-99.99,,,0.00,241,weatherlink.com 1.10,2013-12-25 17:46:00,
2013-12-25 12:51:00,48.9,43.3,30.32,NNE,24,10.0,16.0,81,0.00,,,0.00,232.0,meteohub,2013-12-25 17:51:00,
2013-12-25 12:56:00,48.9,43.3,30.31,ENE,61,10.0,14.0,81,0.00,,,0.00,211.0,meteohub,2013-12-25 17:56:00,
2013-12-25 13:01:00,48.7,43.2,30.31,ENE,61,9.0,16.0,81,0.00,,,0.00,225.0,meteohub,2013-12-25 18:01:00,
2013-12-25 13:06:00,48.7,43.5,30.31,NNE,20,10.0,16.0,82,0.00,,,0.00,218.0,meteohub,2013-12-25 18:06:00,
2013-12-25 13:11:00,48.9,43.7,30.31,NNE,26,5.0,16.0,82,0.00,,,0.00,230.0,meteohub,2013-12-25 18:11:00,
2013-12-25 13:16:00,49.2,44.0,30.29,NE,38,5.0,-999.0,81,-99.99,,,0.00,229,weatherlink.com 1.10,2013-12-25 18:16:00,
2013-12-25 13:21:00,49.3,44.1,30.30,NE,36,12.0,15.0,82,0.00,,,0.00,218.0,meteohub,2013-12-25 18:21:00,
2013-12-25 13:26:00,49.1,43.9,30.31,NE,44,9.0,16.0,82,0.00,,,0.00,192.0,meteohub,2013-12-25 18:26:00,
2013-12-25 13:31:00,49.1,43.9,30.31,NE,52,7.0,16.0,82,0.00,,,0.00,190.0,meteohub,2013-12-25 18:31:00,
2013-12-25 13:36:00,48.7,43.5,30.30,NNE,17,4.0,16.0,82,0.00,,,0.00,171.0,meteohub,2013-12-25 18:36:00,
2013-12-25 13:41:00,48.7,43.5,30.30,NE,38,0.0,16.0,82,0.00,,,0.00,167.0,meteohub,2013-12-25 18:41:00,
2013-12-25 13:46:00,48.9,43.7,30.30,NE,47,6.0,16.0,82,0.00,,,0.00,162.0,meteohub,2013-12-25 18:46:00,
2013-12-25 13:51:00,48.7,43.9,30.30,NE,53,8.0,16.0,83,0.00,,,0.00,151.0,meteohub,2013-12-25 18:51:00,
2013-12-25 13:56:00,48.9,44.1,30.30,NE,48,6.0,16.0,83,0.00,,,0.00,171.0,meteohub,2013-12-25 18:56:00,
2013-12-25 14:01:00,48.9,44.1,30.30,NNE,31,6.0,12.0,83,0.00,,,0.00,169.0,meteohub,2013-12-25 19:01:00,
2013-12-25 14:06:00,49.1,44.2,30.30,NE,53,13.0,13.0,83,0.00,,,0.00,160.0,meteohub,2013-12-25 19:06:00,
2013-12-25 14:11:00,48.9,44.1,30.30,NE,37,10.0,13.0,83,0.00,,,0.00,155.0,meteohub,2013-12-25 19:11:00,
2013-12-25 14:16:00,48.7,43.9,30.29,ENE,64,7.0,16.0,83,0.00,,,0.00,167.0,meteohub,2013-12-25 19:16:00,
2013-12-25 14:21:00,48.9,44.1,30.29,NE,40,4.0,16.0,83,0.00,,,0.00,172.0,meteohub,2013-12-25 19:21:00,
2013-12-25 14:26:00,48.9,44.1,30.29,NE,48,6.0,16.0,83,0.00,,,0.00,146.0,meteohub,2013-12-25 19:26:00,
2013-12-25 14:31:00,48.9,44.1,30.29,NE,38,6.0,16.0,83,0.00,,,0.00,151.0,meteohub,2013-12-25 19:31:00,
2013-12-25 14:36:00,48.9,44.1,30.29,North,11,5.0,16.0,83,0.00,,,0.00,137.0,meteohub,2013-12-25 19:36:00,
2013-12-25 14:41:00,49.1,44.2,30.29,ENE,59,4.0,16.0,83,0.00,,,0.00,139.0,meteohub,2013-12-25 19:41:00,
2013-12-25 14:45:00,49.1,44.2,30.29,NE,41,4.0,16.0,83,0.00,,,0.00,125.0,meteohub,2013-12-25 19:45:00,
2013-12-25 14:50:00,49.3,44.4,30.29,NE,40,13.0,16.0,83,0.00,,,0.00,127.0,meteohub,2013-12-25 19:50:00,
2013-12-25 14:55:00,49.3,44.4,30.29,NNE,19,0.0,15.0,83,0.00,,,0.00,125.0,meteohub,2013-12-25 19:55:00,
2013-12-25 15:00:00,49.5,44.6,30.28,NE,51,11.0,15.0,83,0.00,,,0.00,127.0,meteohub,2013-12-25 20:00:00,
2013-12-25 15:04:00,49.3,44.4,30.28,North,5,4.0,15.0,83,0.00,,,0.00,135.0,meteohub,2013-12-25 20:04:00,
2013-12-25 15:09:00,49.5,44.6,30.29,NE,50,6.0,13.0,83,0.00,,,0.00,134.0,meteohub,2013-12-25 20:09:00,
2013-12-25 15:14:00,49.6,44.8,30.29,NE,34,9.0,13.0,83,0.00,,,0.00,113.0,meteohub,2013-12-25 20:14:00,
2013-12-25 15:19:00,49.6,44.4,30.29,NNE,28,4.0,12.0,82,0.00,,,0.00,98.0,meteohub,2013-12-25 20:19:00,
2013-12-25 15:24:00,49.6,44.8,30.29,NE,46,9.0,12.0,83,0.00,,,0.00,98.0,meteohub,2013-12-25 20:24:00,
2013-12-25 15:29:00,49.5,44.6,30.29,NNE,28,8.0,13.0,83,0.00,,,0.00,97.0,meteohub,2013-12-25 20:29:00,
2013-12-25 15:34:00,49.5,44.6,30.29,North,11,4.0,13.0,83,0.00,,,0.00,81.0,meteohub,2013-12-25 20:34:00,
2013-12-25 15:39:00,49.5,44.6,30.29,NE,40,3.0,16.0,83,0.00,,,0.00,81.0,meteohub,2013-12-25 20:39:00,
2013-12-25 15:44:00,49.5,44.6,30.29,NE,49,7.0,16.0,83,0.00,,,0.00,88.0,meteohub,2013-12-25 20:44:00,
2013-12-25 15:49:00,49.5,44.6,30.29,NE,42,6.0,14.0,83,0.00,,,0.00,86.0,meteohub,2013-12-25 20:49:00,
2013-12-25 15:54:00,49.5,44.8,30.29,NNE,27,4.0,14.0,84,0.00,,,0.00,65.0,meteohub,2013-12-25 20:54:00,
2013-12-25 15:59:00,49.5,44.6,30.29,NE,35,5.0,14.0,83,0.00,,,0.00,67.0,meteohub,2013-12-25 20:59:00,
2013-12-25 16:04:00,49.6,44.8,30.29,NNE,29,3.0,12.0,83,0.00,,,0.00,63.0,meteohub,2013-12-25 21:04:00,
2013-12-25 16:09:00,49.6,44.8,30.28,ENE,65,4.0,12.0,83,0.00,,,0.00,60.0,meteohub,2013-12-25 21:09:00,
2013-12-25 16:14:00,49.6,44.8,30.28,NE,36,9.0,15.0,83,0.00,,,0.00,51.0,meteohub,2013-12-25 21:14:00,
2013-12-25 16:19:00,49.6,45.0,30.28,NE,40,7.0,15.0,84,0.00,,,0.00,47.0,meteohub,2013-12-25 21:19:00,
2013-12-25 16:24:00,49.6,45.0,30.29,ENE,69,3.0,15.0,84,0.00,,,0.00,39.0,meteohub,2013-12-25 21:24:00,
2013-12-25 16:29:00,49.6,44.8,30.29,NNW,342,2.0,15.0,83,0.00,,,0.00,28.0,meteohub,2013-12-25 21:29:00,
2013-12-25 16:34:00,49.6,44.8,30.29,NNE,32,8.0,11.0,83,0.00,,,0.00,26.0,meteohub,2013-12-25 21:34:00,
2013-12-25 16:39:00,49.5,44.6,30.29,NE,46,4.0,11.0,83,0.00,,,0.00,37.0,meteohub,2013-12-25 21:39:00,
2013-12-25 16:44:00,49.5,44.8,30.29,NNE,18,7.0,14.0,84,0.00,,,0.00,33.0,meteohub,2013-12-25 21:44:00,
2013-12-25 16:49:00,49.5,44.8,30.29,NNE,27,0.0,18.0,84,0.00,,,0.00,26.0,meteohub,2013-12-25 21:49:00,
2013-12-25 16:54:00,49.5,44.8,30.29,NE,51,2.0,18.0,84,0.00,,,0.00,23.0,meteohub,2013-12-25 21:54:00,
2013-12-25 16:59:00,49.5,44.8,30.29,NE,46,3.0,13.0,84,0.00,,,0.00,21.0,meteohub,2013-12-25 21:59:00,
2013-12-25 17:04:00,49.5,44.8,30.29,NE,53,4.0,9.0,84,0.00,,,0.00,14.0,meteohub,2013-12-25 22:04:00,
2013-12-25 17:09:00,49.5,44.6,30.29,NNE,13,3.0,13.0,83,0.00,,,0.00,9.0,meteohub,2013-12-25 22:09:00,
2013-12-25 17:14:00,49.5,44.6,30.29,NE,41,5.0,13.0,83,0.00,,,0.00,7.0,meteohub,2013-12-25 22:14:00,
2013-12-25 17:19:00,49.5,44.8,30.29,NE,36,6.0,13.0,84,0.00,,,0.00,0.0,meteohub,2013-12-25 22:19:00,
2013-12-25 17:24:00,49.5,44.8,30.29,NE,49,2.0,12.0,84,0.00,,,0.00,0.0,meteohub,2013-12-25 22:24:00,
2013-12-25 17:29:00,49.3,44.4,30.29,NW,315,0.0,13.0,83,0.00,,,0.00,0.0,meteohub,2013-12-25 22:29:00,
2013-12-25 17:34:00,49.3,44.4,30.29,NE,49,4.0,13.0,83,0.00,,,0.00,0.0,meteohub,2013-12-25 22:34:00,
2013-12-25 17:39:00,49.3,44.4,30.29,NE,48,3.0,13.0,83,0.00,,,0.00,0.0,meteohub,2013-12-25 22:39:00,
2013-12-25 17:44:00,49.3,44.6,30.29,NE,44,3.0,11.0,84,0.00,,,0.00,0.0,meteohub,2013-12-25 22:44:00,
2013-12-25 17:49:00,49.3,44.4,30.29,NE,34,0.0,9.0,83,0.00,,,0.00,0.0,meteohub,2013-12-25 22:49:00,
2013-12-25 17:54:00,49.3,44.4,30.29,NNE,25,0.0,8.0,83,0.00,,,0.00,0.0,meteohub,2013-12-25 22:54:00,
2013-12-25 17:59:00,49.3,44.6,30.29,NNW,341,0.0,7.0,84,0.00,,,0.00,0.0,meteohub,2013-12-25 22:59:00,
2013-12-25 18:04:00,49.1,44.2,30.29,NNE,26,0.0,7.0,83,0.00,,,0.00,0.0,meteohub,2013-12-25 23:04:00,
2013-12-25 18:09:00,49.1,43.9,30.30,North,5,0.0,7.0,82,0.00,,,0.00,0.0,meteohub,2013-12-25 23:09:00,
2013-12-25 18:14:00,49.3,44.1,30.30,NNE,20,3.0,7.0,82,0.00,,,0.00,0.0,meteohub,2013-12-25 23:14:00,
2013-12-25 18:19:00,49.3,44.1,30.30,NE,40,4.0,7.0,82,0.00,,,0.00,0.0,meteohub,2013-12-25 23:19:00,
2013-12-25 18:25:00,49.3,44.1,30.29,NE,36,1.0,8.0,82,0.00,,,0.00,0.0,meteohub,2013-12-25 23:25:00,
2013-12-25 18:29:00,49.3,44.1,30.29,ENE,57,2.0,8.0,82,0.00,,,0.00,0.0,meteohub,2013-12-25 23:29:00,
2013-12-25 18:34:00,49.3,44.1,30.29,NE,35,0.0,12.0,82,0.00,,,0.00,0.0,meteohub,2013-12-25 23:34:00,
2013-12-25 18:39:00,49.3,44.1,30.29,NNW,337,1.0,12.0,82,0.00,,,0.00,0.0,meteohub,2013-12-25 23:39:00,
2013-12-25 18:44:00,49.3,44.1,30.29,NE,48,3.0,12.0,82,0.00,,,0.00,0.0,meteohub,2013-12-25 23:44:00,
2013-12-25 18:49:00,49.3,44.1,30.29,NE,36,5.0,7.0,82,0.00,,,0.00,0.0,meteohub,2013-12-25 23:49:00,
2013-12-25 18:54:00,49.3,43.7,30.29,ENE,61,5.0,7.0,81,0.00,,,0.00,0.0,meteohub,2013-12-25 23:54:00,
2013-12-25 18:59:00,49.3,43.7,30.29,NNE,25,0.0,9.0,81,0.00,,,0.00,0.0,meteohub,2013-12-25 23:59:00,
2013-12-25 19:04:00,49.3,43.7,30.29,NE,48,3.0,9.0,81,0.00,,,0.00,0.0,meteohub,2013-12-26 00:04:00,
2013-12-25 19:09:00,49.3,44.1,30.29,NE,36,1.0,9.0,82,0.00,,,0.00,0.0,meteohub,2013-12-26 00:09:00,
2013-12-25 19:14:00,49.3,43.7,30.29,North,5,2.0,9.0,81,0.00,,,0.00,0.0,meteohub,2013-12-26 00:14:00,
2013-12-25 19:19:00,49.3,43.7,30.28,NNW,338,0.0,9.0,81,0.00,,,0.00,0.0,meteohub,2013-12-26 00:19:00,
2013-12-25 19:24:00,49.3,43.7,30.28,NNE,19,6.0,10.0,81,0.00,,,0.00,0.0,meteohub,2013-12-26 00:24:00,
2013-12-25 19:30:00,49.5,43.9,30.28,NE,49,9.0,10.0,81,0.00,,,0.00,0.0,meteohub,2013-12-26 00:30:00,
2013-12-25 19:35:00,49.5,43.9,30.28,NE,43,7.0,11.0,81,0.00,,,0.00,0.0,meteohub,2013-12-26 00:35:00,
2013-12-25 19:40:00,49.5,43.9,30.28,North,0,0.0,11.0,81,0.00,,,0.00,0.0,meteohub,2013-12-26 00:40:00,
2013-12-25 19:45:00,49.5,43.9,30.28,NNE,30,3.0,11.0,81,0.00,,,0.00,0.0,meteohub,2013-12-26 00:45:00,
2013-12-25 19:50:00,49.5,43.5,30.28,NE,38,9.0,11.0,80,0.00,,,0.00,0.0,meteohub,2013-12-26 00:50:00,
2013-12-25 19:55:00,49.5,43.9,30.28,NE,36,2.0,12.0,81,0.00,,,0.00,0.0,meteohub,2013-12-26 00:55:00,
2013-12-25 20:00:00,49.5,43.9,30.28,NE,46,4.0,12.0,81,0.00,,,0.00,0.0,meteohub,2013-12-26 01:00:00,
2013-12-25 20:05:00,49.5,43.5,30.28,NE,41,6.0,12.0,80,0.00,,,0.00,0.0,meteohub,2013-12-26 01:05:00,
2013-12-25 20:10:00,49.5,43.9,30.28,NE,48,2.0,9.0,81,0.00,,,0.00,0.0,meteohub,2013-12-26 01:10:00,
2013-12-25 20:15:00,49.5,43.9,30.28,NE,37,0.0,9.0,81,0.00,,,0.00,0.0,meteohub,2013-12-26 01:15:00,
2013-12-25 20:20:00,49.5,43.9,30.28,NE,40,6.0,9.0,81,0.00,,,0.00,0.0,meteohub,2013-12-26 01:20:00,
2013-12-25 20:25:00,49.6,44.1,30.28,NNE,30,5.0,12.0,81,0.00,,,0.00,0.0,meteohub,2013-12-26 01:25:00,
2013-12-25 20:30:00,49.6,43.7,30.28,North,5,4.0,12.0,80,0.00,,,0.00,0.0,meteohub,2013-12-26 01:30:00,
2013-12-25 20:35:00,49.6,43.7,30.28,NE,40,6.0,12.0,80,0.00,,,0.00,0.0,meteohub,2013-12-26 01:35:00,
2013-12-25 20:40:00,49.6,43.7,30.28,North,355,0.0,12.0,80,0.00,,,0.00,0.0,meteohub,2013-12-26 01:40:00,
2013-12-25 20:45:00,49.6,43.7,30.28,NE,36,5.0,12.0,80,0.00,,,0.00,0.0,meteohub,2013-12-26 01:45:00,
2013-12-25 20:50:00,49.6,44.1,30.28,NNE,32,3.0,12.0,81,0.00,,,0.00,0.0,meteohub,2013-12-26 01:50:00,
2013-12-25 20:55:00,49.8,43.9,30.29,NE,46,3.0,11.0,80,0.00,,,0.00,0.0,meteohub,2013-12-26 01:55:00,
2013-12-25 21:00:00,49.6,43.7,30.29,NNE,33,2.0,8.0,80,0.00,,,0.00,0.0,meteohub,2013-12-26 02:00:00,
2013-12-25 21:05:00,49.6,43.7,30.29,WNW,302,0.0,8.0,80,0.00,,,0.00,0.0,meteohub,2013-12-26 02:05:00,
2013-12-25 21:10:00,49.6,43.3,30.29,NNE,32,0.0,11.0,79,0.00,,,0.00,0.0,meteohub,2013-12-26 02:10:00,
2013-12-25 21:15:00,49.6,43.7,30.29,NNE,18,0.0,11.0,80,0.00,,,0.00,0.0,meteohub,2013-12-26 02:15:00,
2013-12-25 21:20:00,49.6,43.7,30.29,NE,36,1.0,11.0,80,0.00,,,0.00,0.0,meteohub,2013-12-26 02:20:00,
2013-12-25 21:25:00,49.5,43.2,30.28,NNE,32,3.0,9.0,79,0.00,,,0.00,0.0,meteohub,2013-12-26 02:25:00,
2013-12-25 21:30:00,49.5,43.2,30.28,NE,53,7.0,9.0,79,0.00,,,0.00,0.0,meteohub,2013-12-26 02:30:00,
2013-12-25 21:35:00,49.5,43.2,30.29,NNE,33,3.0,10.0,79,0.00,,,0.00,0.0,meteohub,2013-12-26 02:35:00,
2013-12-25 21:40:00,49.5,43.2,30.28,NW,309,1.0,10.0,79,0.00,,,0.00,0.0,meteohub,2013-12-26 02:40:00,
2013-12-25 21:45:00,49.3,43.0,30.28,North,349,7.0,11.0,79,0.00,,,0.00,0.0,meteohub,2013-12-26 02:45:00,
2013-12-25 21:50:00,49.3,43.3,30.28,NNE,32,3.0,11.0,80,0.00,,,0.00,0.0,meteohub,2013-12-26 02:50:00,
2013-12-25 21:55:00,49.3,43.0,30.28,NNE,21,4.0,11.0,79,0.00,,,0.00,0.0,meteohub,2013-12-26 02:55:00,
2013-12-25 22:00:00,49.3,43.0,30.28,NE,50,4.0,11.0,79,0.00,,,0.00,0.0,meteohub,2013-12-26 03:00:00,
2013-12-25 22:05:00,49.3,43.3,30.28,NNE,31,0.0,8.0,80,0.00,,,0.00,0.0,meteohub,2013-12-26 03:05:00,
2013-12-25 22:10:00,49.3,43.0,30.28,NE,38,4.0,8.0,79,0.00,,,0.00,0.0,meteohub,2013-12-26 03:10:00,
2013-12-25 22:15:00,49.1,42.8,30.28,NNW,331,0.0,8.0,79,0.00,,,0.00,0.0,meteohub,2013-12-26 03:15:00,
2013-12-25 22:20:00,49.1,42.8,30.28,NNE,28,2.0,8.0,79,0.00,,,0.00,0.0,meteohub,2013-12-26 03:20:00,
2013-12-25 22:25:00,48.9,43.0,30.28,NE,38,2.0,8.0,80,0.00,,,0.00,0.0,meteohub,2013-12-26 03:25:00,
2013-12-25 22:30:00,48.9,43.0,30.28,North,351,0.0,8.0,80,0.00,,,0.00,0.0,meteohub,2013-12-26 03:30:00,
2013-12-25 22:35:00,48.7,42.8,30.28,NE,46,1.0,8.0,80,0.00,,,0.00,0.0,meteohub,2013-12-26 03:35:00,
2013-12-25 22:40:00,48.7,42.8,30.28,NE,51,5.0,6.0,80,0.00,,,0.00,0.0,meteohub,2013-12-26 03:40:00,
2013-12-25 22:45:00,48.6,42.6,30.28,NE,34,2.0,6.0,80,0.00,,,0.00,0.0,meteohub,2013-12-26 03:45:00,
2013-12-25 22:50:00,48.6,42.6,30.28,NE,48,4.0,7.0,80,0.00,,,0.00,0.0,meteohub,2013-12-26 03:50:00,
2013-12-25 22:55:00,48.4,42.4,30.28,NNE,28,0.0,7.0,80,0.00,,,0.00,0.0,meteohub,2013-12-26 03:55:00,
2013-12-25 23:00:00,48.4,42.8,30.28,ENE,57,4.0,6.0,81,0.00,,,0.00,0.0,meteohub,2013-12-26 04:00:00,
2013-12-25 23:05:00,48.4,42.8,30.28,NE,54,3.0,6.0,81,0.00,,,0.00,0.0,meteohub,2013-12-26 04:05:00,
2013-12-25 23:10:00,48.2,42.3,30.28,North,349,0.0,10.0,80,0.00,,,0.00,0.0,meteohub,2013-12-26 04:10:00,
2013-12-25 23:15:00,48.2,42.3,30.28,NE,35,0.0,10.0,80,0.00,,,0.00,0.0,meteohub,2013-12-26 04:15:00,
2013-12-25 23:20:00,48.2,42.6,30.28,NE,38,0.0,10.0,81,0.00,,,0.00,0.0,meteohub,2013-12-26 04:20:00,
2013-12-25 23:25:00,48.0,42.4,30.28,NW,317,2.0,5.0,81,0.00,,,0.00,0.0,meteohub,2013-12-26 04:25:00,
2013-12-25 23:30:00,48.0,42.4,30.28,NW,319,0.0,5.0,81,0.00,,,0.00,0.0,meteohub,2013-12-26 04:30:00,
2013-12-25 23:35:00,47.8,41.9,30.27,NW,307,0.0,5.0,80,0.00,,,0.00,0.0,meteohub,2013-12-26 04:35:00,
2013-12-25 23:40:00,47.8,42.3,30.28,NW,307,0.0,4.0,81,0.00,,,0.00,0.0,meteohub,2013-12-26 04:40:00,
2013-12-25 23:45:00,47.7,42.1,30.28,NW,325,0.0,4.0,81,0.00,,,0.00,0.0,meteohub,2013-12-26 04:45:00,
2013-12-25 23:50:00,47.5,41.9,30.28,NW,324,0.0,4.0,81,0.00,,,0.00,0.0,meteohub,2013-12-26 04:50:00,
2013-12-25 23:55:00,47.3,41.7,30.27,NW,324,0.0,3.0,81,0.00,,,0.00,0.0,meteohub,2013-12-26 04:55:00,